Aérodrome :
LOGIN :

S'inscrire | Disclaimer

   EN    FR    IT 

 










Légende :    VFR   VFR Marginal   IFR   IFR Intensif   IFR Très Intensif
Visi : 
Plafond : 
>= 8 km
>= 3000ft
5 à 8 km
1000 à 3000 ft
1500m à 5 km
500 à 1000 ft
800 à 1500m
200 à 500 ft
< 800m
< 200 ft
Symboles :   Orages  Brouillard  Fortes neiges  Fortes précipitations  Vent > 20 kt
SIGMETs :   Divers  Orages  Givrage  Turbulence  Onde Orograph.  Cendres Volcan.







- Altitude de l'aérodrome : 659 ft
- Code IATA : LYN
- Voir les cartes d'approche


LFLY - Lyon Bron

DERNIER METAR :
  • 240000Z AUTO 18016KT CAVOK 13/08 Q1017 NOSIG

METARs EXPIRÉS :
  • 232330Z AUTO 18016KT CAVOK 13/08 Q1017 NOSIG
  • 232300Z AUTO 19016KT CAVOK 13/09 Q1017 NOSIG
  • 232230Z AUTO 19016KT CAVOK 13/09 Q1017 NOSIG
  • 232200Z AUTO 19016KT CAVOK 14/09 Q1017 NOSIG
  • 232130Z AUTO 18018KT CAVOK 14/09 Q1017 NOSIG

TAF TAF LFLY
Valide du 24 à 00h jusqu'au 25 à 00h UTC


232300Z 2400/2424 18012KT CAVOK
BECMG 2407/2409 18015G25KT
FM241200 18014KT CAVOK
TEMPO 2412/2417 -RA OVC060
ATIS : +33 4 72 15 87 96
Pas de NOTAMs connus pour ce terrain.



MET'MAP, la Météo Aéronautique d'un coup d'oeil ! - Copyright ORBIFLY Décembre 2007 - Disclaimer

ORBIFLY MET'MAP TEAM :

Programmation & Développement : Alexandra Zaïnal
Conception & Développement : Baudouin d'Aumeries
Co-Programmation & Développement : Marc-Olivier Méhu
Soutien technique & logistique : Manuel Goepfert

Contact : metmap@orbifly.com




SOURCES & CREDITS :

   NOAA